Location: *
(46.1333°S, 161.2167°W)
Time: 04:02:58
(UTC+00:00)

ADEOS Rocket - Pass Details

Date: 15 July 2020
Orbit: 859 x 1306 km, 98.7° (Epoch: 10 August)

Event Time Altitude Azimuth Distance (km) Brightness Sun altitude
Rises 16:16:34 0° 163° (SSE) 3,493 6.0 -21.0°
Reaches altitude 10° 16:19:01 10° 159° (SSE) 2,536 5.3 -20.6°
Maximum altitude 16:24:30 60° 79° (E) 1,002 3.3 -19.7°
Drops below altitude 10° 16:30:05 10° 359° (N) 2,570 5.3 -18.7°
Sets 16:32:34 0° 355° (N) 3,542 6.0 -18.3°
